Terug naar catalogus

STARLINK-33773

ActiefCommunicatieVLEO
NORAD 63713·PAYLOAD·🇺🇸 United States

Gelanceerd Apr 28, 2025 vanaf Vandenberg Space Force Base

Loading…

Volgende Passages (komende 24 uur)

TLE

VersSource: CelesTrak SupGP

Epoch: Sep 15, 2026, 02:19 UTC

1 63713C 25087S   26258.09701389 -.00029367  00000+0 -94447-3 0  2589
2 63713  53.1595  58.0847 0001181  82.0406 239.7693 15.31713153    13

Volg STARLINK-33773 in realtime met AllMySat

Download on the App Store